TVS1XY LKPR-LFPG

Flight info

Callsign TVS1XY
Flight time 1h 26m
Altitude 32000
Route BALTU DCT DONAD DCT RAPET Z93 KODUK DCT MARZA DCT LOHRE DCT NOSPA UN857 TOLVU/N0434F330 DCT RAPOR DCT VEDUS
Aircraft A320/M-SDE3FGHIRWY/LB1

Departure

Time 2026-05-05 15:44
Airport Václav Havel Airport Prague (LKPR)

Arrival

Time 2026-05-05 17:10
Airport Charles de Gaulle International Airport (LFPG)
Time Latitude Longitude Altitude Speed Heading
2026-05-05 15:20 50.10629 14.26207 1169 ft 0 kts 34°
2026-05-05 15:31 50.10619 14.26197 1174 ft 4 kts 34°
2026-05-05 15:31 50.10597 14.26174 1171 ft 4 kts 32°
2026-05-05 15:31 50.10574 14.26154 1172 ft 4 kts 14°
2026-05-05 15:31 50.10553 14.26156 1173 ft 3 kts 302°
2026-05-05 15:32 50.10560 14.26139 1169 ft 4 kts 304°
2026-05-05 15:32 50.10571 14.26116 1173 ft 0 kts 304°
2026-05-05 15:38 50.10577 14.26102 1171 ft 4 kts 304°
2026-05-05 15:38 50.10585 14.26035 1172 ft 9 kts 247°
2026-05-05 15:38 50.10518 14.25975 1174 ft 13 kts 187°
2026-05-05 15:38 50.10448 14.26083 1171 ft 17 kts 127°
2026-05-05 15:39 50.10370 14.26243 1174 ft 19 kts 126°
2026-05-05 15:39 50.10281 14.26428 1175 ft 24 kts 127°
2026-05-05 15:39 50.10179 14.26639 1176 ft 25 kts 127°
2026-05-05 15:39 50.10078 14.26843 1188 ft 22 kts 128°
2026-05-05 15:40 50.09996 14.27015 1197 ft 18 kts 127°
2026-05-05 15:40 50.09923 14.27168 1201 ft 17 kts 126°
2026-05-05 15:40 50.09850 14.27315 1203 ft 17 kts 133°
2026-05-05 15:40 50.09770 14.27437 1205 ft 16 kts 134°
2026-05-05 15:41 50.09692 14.27562 1206 ft 17 kts 133°
2026-05-05 15:41 50.09608 14.27690 1210 ft 17 kts 136°
2026-05-05 15:41 50.09521 14.27822 1213 ft 18 kts 135°
2026-05-05 15:41 50.09433 14.27959 1215 ft 19 kts 135°
2026-05-05 15:42 50.09333 14.28112 1215 ft 21 kts 136°
2026-05-05 15:42 50.09223 14.28273 1212 ft 23 kts 146°
2026-05-05 15:42 50.09094 14.28185 1210 ft 20 kts 238°
2026-05-05 15:42 50.09111 14.28029 1209 ft 12 kts 307°
2026-05-05 15:43 50.09189 14.27870 1211 ft 42 kts 307°
2026-05-05 15:43 50.09515 14.27193 1206 ft 111 kts 307°
2026-05-05 15:43 50.10091 14.25995 1191 ft 163 kts 306°
2026-05-05 15:43 50.10839 14.24487 1556 ft 177 kts 310°
2026-05-05 15:44 50.11587 14.22946 2231 ft 181 kts 309°
2026-05-05 15:44 50.12344 14.21342 2920 ft 186 kts 309°
2026-05-05 15:44 50.13108 14.19691 3537 ft 192 kts 307°
2026-05-05 15:44 50.13905 14.17905 3981 ft 209 kts 307°
2026-05-05 15:45 50.14770 14.15949 4402 ft 232 kts 306°
2026-05-05 15:45 50.15726 14.13791 4854 ft 251 kts 306°
2026-05-05 15:45 50.16762 14.11542 5451 ft 266 kts 307°
2026-05-05 15:45 50.17871 14.09157 6152 ft 278 kts 306°
2026-05-05 15:46 50.18869 14.06529 6855 ft 286 kts 288°
2026-05-05 15:46 50.19103 14.03459 7650 ft 286 kts 260°
2026-05-05 15:46 50.18691 14.00453 8590 ft 283 kts 255°
2026-05-05 15:46 50.18257 13.97453 9474 ft 284 kts 255°
2026-05-05 15:47 50.17823 13.94420 10154 ft 293 kts 255°
2026-05-05 15:47 50.17520 13.92308 10315 ft 308 kts 255°
2026-05-05 15:47 50.16869 13.87742 10753 ft 332 kts 256°
2026-05-05 15:47 50.16373 13.84246 11395 ft 338 kts 256°
2026-05-05 15:48 50.15858 13.80595 12142 ft 341 kts 256°
2026-05-05 15:48 50.15352 13.77013 12859 ft 345 kts 256°
2026-05-05 15:48 50.14833 13.73343 13577 ft 348 kts 256°
2026-05-05 15:48 50.14305 13.69640 14204 ft 351 kts 256°
2026-05-05 15:49 50.13769 13.65908 14836 ft 354 kts 256°
2026-05-05 15:49 50.13227 13.62141 15472 ft 357 kts 255°
2026-05-05 15:49 50.12680 13.58346 16094 ft 360 kts 255°
2026-05-05 15:49 50.12129 13.54525 16710 ft 363 kts 255°
2026-05-05 15:50 50.11570 13.50664 17332 ft 366 kts 255°
2026-05-05 15:50 50.11005 13.46780 17955 ft 369 kts 255°
2026-05-05 15:50 50.10432 13.42867 18505 ft 372 kts 255°
2026-05-05 15:50 50.09855 13.38920 19047 ft 375 kts 255°
2026-05-05 15:51 50.09282 13.35000 19578 ft 378 kts 255°
2026-05-05 15:51 50.08896 13.30936 20114 ft 383 kts 265°
2026-05-05 15:51 50.08801 13.26810 20651 ft 386 kts 265°
2026-05-05 15:51 50.08704 13.22623 21184 ft 389 kts 265°
2026-05-05 15:52 50.08595 13.18400 21706 ft 392 kts 265°
2026-05-05 15:52 50.08478 13.14150 22208 ft 395 kts 265°
2026-05-05 15:52 50.08356 13.09857 22725 ft 398 kts 265°
2026-05-05 15:52 50.08232 13.05540 23214 ft 400 kts 265°
2026-05-05 15:53 50.08197 13.01189 23632 ft 405 kts 271°
2026-05-05 15:53 50.08610 12.96826 24037 ft 411 kts 281°
2026-05-05 15:53 50.09344 12.92510 24443 ft 413 kts 282°
2026-05-05 15:53 50.10080 12.88181 24852 ft 415 kts 282°
2026-05-05 15:54 50.10813 12.83828 25240 ft 416 kts 281°
2026-05-05 15:54 50.11545 12.79453 25632 ft 418 kts 281°
2026-05-05 15:54 50.12266 12.75125 26001 ft 419 kts 281°
2026-05-05 15:54 50.12998 12.70713 26370 ft 421 kts 281°
2026-05-05 15:55 50.13732 12.66285 26756 ft 423 kts 281°
2026-05-05 15:55 50.14467 12.61834 27117 ft 425 kts 281°
2026-05-05 15:55 50.15205 12.57368 27455 ft 427 kts 281°
2026-05-05 15:55 50.15944 12.52873 27800 ft 429 kts 281°
2026-05-05 15:56 50.16684 12.48356 28139 ft 430 kts 281°
2026-05-05 15:56 50.17424 12.43822 28459 ft 432 kts 281°
2026-05-05 15:56 50.18166 12.39271 28780 ft 434 kts 281°
2026-05-05 15:56 50.18824 12.34679 29082 ft 433 kts 275°
2026-05-05 15:57 50.19054 12.30008 29390 ft 431 kts 266°
2026-05-05 15:57 50.19035 12.25338 29690 ft 432 kts 266°
2026-05-05 15:57 50.19013 12.20695 29971 ft 434 kts 266°
2026-05-05 15:57 50.18993 12.15984 30222 ft 435 kts 266°
2026-05-05 15:58 50.18972 12.11255 30451 ft 437 kts 266°
2026-05-05 15:58 50.18951 12.06508 30675 ft 438 kts 266°
2026-05-05 15:58 50.18932 12.01748 30933 ft 439 kts 266°
2026-05-05 15:58 50.18910 11.96996 31236 ft 438 kts 266°
2026-05-05 15:59 50.18884 11.92249 31531 ft 437 kts 266°
2026-05-05 15:59 50.18851 11.87512 31813 ft 437 kts 266°
2026-05-05 15:59 50.18813 11.82779 32115 ft 436 kts 265°
2026-05-05 15:59 50.18803 11.78049 32393 ft 436 kts 267°
2026-05-05 16:00 50.18849 11.73312 32665 ft 436 kts 268°
2026-05-05 16:00 50.18930 11.68584 32942 ft 436 kts 268°
2026-05-05 16:00 50.19023 11.63924 33205 ft 435 kts 268°
2026-05-05 16:00 50.19114 11.59144 33502 ft 435 kts 268°
2026-05-05 16:01 50.19193 11.54502 33792 ft 434 kts 268°
2026-05-05 16:01 50.19261 11.49796 34055 ft 433 kts 268°
2026-05-05 16:01 50.19318 11.45102 34310 ft 432 kts 267°
2026-05-05 16:01 50.19366 11.40415 34565 ft 431 kts 267°
2026-05-05 16:02 50.19412 11.35739 34815 ft 431 kts 267°
2026-05-05 16:02 50.19458 11.31068 35040 ft 430 kts 267°
2026-05-05 16:02 50.19504 11.26416 35272 ft 429 kts 267°
2026-05-05 16:02 50.19550 11.21765 35491 ft 428 kts 267°
2026-05-05 16:03 50.19593 11.17113 35693 ft 428 kts 267°
2026-05-05 16:03 50.19671 11.07897 35785 ft 427 kts 267°
2026-05-05 16:04 50.19747 10.98644 35789 ft 426 kts 267°
2026-05-05 16:04 50.19392 10.89469 35789 ft 423 kts 259°
2026-05-05 16:05 50.18620 10.80377 35792 ft 423 kts 259°
2026-05-05 16:05 50.17846 10.71272 35797 ft 423 kts 259°
2026-05-05 16:06 50.17068 10.62165 35796 ft 424 kts 259°
2026-05-05 16:06 50.16290 10.53116 35796 ft 424 kts 259°
2026-05-05 16:07 50.15194 10.44129 35790 ft 420 kts 250°
2026-05-05 16:07 50.13438 10.35426 35969 ft 422 kts 249°
2026-05-05 16:07 50.12547 10.31075 36140 ft 422 kts 249°
2026-05-05 16:08 50.11653 10.26720 36328 ft 422 kts 249°
2026-05-05 16:08 50.10757 10.22369 36505 ft 422 kts 249°
2026-05-05 16:08 50.09858 10.18020 36683 ft 421 kts 249°
2026-05-05 16:08 50.08959 10.13688 36855 ft 421 kts 249°
2026-05-05 16:09 50.08056 10.09348 36998 ft 421 kts 249°
2026-05-05 16:09 50.07150 10.05011 37157 ft 421 kts 249°
2026-05-05 16:09 50.06242 10.00679 37314 ft 421 kts 249°
2026-05-05 16:09 50.05332 9.96352 37517 ft 421 kts 249°
2026-05-05 16:10 50.04420 9.92022 37739 ft 421 kts 249°
2026-05-05 16:10 50.02635 9.83414 37810 ft 421 kts 254°
2026-05-05 16:10 50.02308 9.78871 37818 ft 426 kts 267°
2026-05-05 16:11 50.02354 9.74262 37822 ft 427 kts 268°
2026-05-05 16:12 50.02564 9.55860 37825 ft 428 kts 268°
2026-05-05 16:13 50.02792 9.32708 37837 ft 428 kts 267°
2026-05-05 16:13 50.02863 9.23440 37843 ft 429 kts 267°
2026-05-05 16:14 50.02987 9.04904 37846 ft 428 kts 267°
2026-05-05 16:15 50.03093 8.87525 37846 ft 428 kts 267°
2026-05-05 16:16 50.03159 8.68983 37851 ft 429 kts 266°
2026-05-05 16:17 50.03185 8.55059 37852 ft 429 kts 267°
2026-05-05 16:18 50.03205 8.41137 37875 ft 429 kts 266°
2026-05-05 16:19 50.03201 8.27258 37881 ft 430 kts 266°
2026-05-05 16:19 50.03189 8.13328 37875 ft 430 kts 266°
2026-05-05 16:20 50.03144 7.94811 37060 ft 428 kts 266°
2026-05-05 16:21 50.03101 7.85611 36422 ft 429 kts 266°
2026-05-05 16:22 50.03033 7.71664 35825 ft 431 kts 265°
2026-05-05 16:23 50.01647 7.53394 35839 ft 425 kts 252°
2026-05-05 16:23 49.99349 7.40061 35839 ft 426 kts 251°
2026-05-05 16:24 49.97817 7.31239 35839 ft 426 kts 251°
2026-05-05 16:25 49.95487 7.17923 35840 ft 426 kts 251°
2026-05-05 16:25 49.93148 7.04595 35835 ft 427 kts 251°
2026-05-05 16:26 49.90003 6.86843 35811 ft 427 kts 251°
2026-05-05 16:27 49.88420 6.77962 35817 ft 427 kts 251°
2026-05-05 16:27 49.86838 6.69161 35820 ft 427 kts 251°
2026-05-05 16:28 49.85234 6.60292 35811 ft 427 kts 251°
2026-05-05 16:28 49.83631 6.51442 35811 ft 427 kts 251°
2026-05-05 16:29 49.82023 6.42587 35809 ft 427 kts 251°
2026-05-05 16:29 49.80403 6.33744 35824 ft 427 kts 250°
2026-05-05 16:30 49.78778 6.24918 35824 ft 426 kts 250°
2026-05-05 16:30 49.77150 6.16096 35831 ft 426 kts 250°
2026-05-05 16:31 49.75516 6.07288 35829 ft 426 kts 250°
2026-05-05 16:31 49.73874 5.98490 35831 ft 426 kts 250°
2026-05-05 16:32 49.72237 5.89752 35828 ft 426 kts 250°
2026-05-05 16:32 49.70582 5.80957 35831 ft 426 kts 250°
2026-05-05 16:33 49.68922 5.72171 35823 ft 426 kts 250°
2026-05-05 16:33 49.67253 5.63388 35822 ft 426 kts 250°
2026-05-05 16:34 49.65572 5.54611 35823 ft 426 kts 250°
2026-05-05 16:34 49.63896 5.45856 35826 ft 426 kts 250°
2026-05-05 16:35 49.62203 5.37101 35828 ft 426 kts 250°
2026-05-05 16:35 49.61640 5.34203 35693 ft 427 kts 250°
2026-05-05 16:35 49.60777 5.29771 34636 ft 436 kts 249°
2026-05-05 16:36 49.59665 5.23770 33354 ft 442 kts 253°
2026-05-05 16:36 49.59241 5.19056 32687 ft 443 kts 262°
2026-05-05 16:36 49.59227 5.14349 32190 ft 438 kts 266°
2026-05-05 16:36 49.59275 5.09673 31613 ft 433 kts 265°
2026-05-05 16:37 49.59300 5.06611 31248 ft 430 kts 265°
2026-05-05 16:37 49.59332 5.01974 30688 ft 426 kts 265°
2026-05-05 16:37 49.59361 4.97490 30153 ft 422 kts 265°
2026-05-05 16:37 49.59391 4.92994 29570 ft 419 kts 265°
2026-05-05 16:38 49.59419 4.88532 29035 ft 414 kts 265°
2026-05-05 16:38 49.59445 4.84109 28504 ft 410 kts 265°
2026-05-05 16:38 49.59470 4.79735 27977 ft 406 kts 265°
2026-05-05 16:38 49.59495 4.75403 27453 ft 404 kts 266°
2026-05-05 16:39 49.59519 4.71091 26934 ft 402 kts 266°
2026-05-05 16:39 49.59542 4.66801 26414 ft 399 kts 266°
2026-05-05 16:39 49.59563 4.62546 25977 ft 394 kts 266°
2026-05-05 16:39 49.59580 4.58326 25455 ft 392 kts 267°
2026-05-05 16:40 49.59597 4.54139 24896 ft 391 kts 267°
2026-05-05 16:40 49.59613 4.49975 24510 ft 385 kts 267°
2026-05-05 16:40 49.59630 4.45866 24033 ft 383 kts 268°
2026-05-05 16:40 49.59641 4.41776 23580 ft 381 kts 268°
2026-05-05 16:41 49.59648 4.37708 23088 ft 378 kts 268°
2026-05-05 16:41 49.59653 4.33717 22589 ft 376 kts 268°
2026-05-05 16:41 49.59657 4.29697 22075 ft 374 kts 268°
2026-05-05 16:41 49.59663 4.25699 21575 ft 372 kts 268°
2026-05-05 16:42 49.59665 4.21732 21084 ft 370 kts 268°
2026-05-05 16:42 49.59665 4.17778 20599 ft 367 kts 268°
2026-05-05 16:42 49.59666 4.13854 20118 ft 365 kts 268°
2026-05-05 16:42 49.59585 4.09960 19648 ft 362 kts 261°
2026-05-05 16:43 49.59031 4.06203 19199 ft 358 kts 249°
2026-05-05 16:43 49.57996 4.02744 18745 ft 355 kts 238°
2026-05-05 16:43 49.56664 3.99548 18290 ft 354 kts 236°
2026-05-05 16:43 49.55324 3.96377 17819 ft 352 kts 236°
2026-05-05 16:44 49.53993 3.93227 17350 ft 350 kts 236°
2026-05-05 16:44 49.52670 3.90092 16891 ft 349 kts 236°
2026-05-05 16:44 49.51368 3.87013 16449 ft 347 kts 236°
2026-05-05 16:44 49.50052 3.83905 16015 ft 345 kts 236°
2026-05-05 16:45 49.48744 3.80811 15588 ft 344 kts 236°
2026-05-05 16:45 49.47579 3.77612 15178 ft 344 kts 246°
2026-05-05 16:45 49.46851 3.74117 14764 ft 343 kts 255°
2026-05-05 16:45 49.46262 3.70565 14342 ft 343 kts 255°
2026-05-05 16:46 49.45668 3.67015 13931 ft 342 kts 255°
2026-05-05 16:46 49.45071 3.63481 13538 ft 341 kts 255°
2026-05-05 16:46 49.44483 3.59979 13210 ft 336 kts 255°
2026-05-05 16:46 49.43899 3.56512 12955 ft 335 kts 255°
2026-05-05 16:47 49.43316 3.53050 12766 ft 334 kts 256°
2026-05-05 16:47 49.42732 3.49597 12588 ft 334 kts 255°
2026-05-05 16:47 49.42148 3.46159 12402 ft 333 kts 255°
2026-05-05 16:47 49.41570 3.42765 12222 ft 332 kts 255°
2026-05-05 16:48 49.40915 3.39377 12040 ft 331 kts 252°
2026-05-05 16:48 49.40220 3.36010 11859 ft 330 kts 252°
2026-05-05 16:48 49.39523 3.32660 11684 ft 329 kts 252°
2026-05-05 16:48 49.38827 3.29321 11515 ft 328 kts 252°
2026-05-05 16:49 49.38131 3.25988 11332 ft 327 kts 252°
2026-05-05 16:49 49.37437 3.22670 11155 ft 326 kts 252°
2026-05-05 16:49 49.36742 3.19358 10981 ft 326 kts 252°
2026-05-05 16:49 49.36047 3.16056 10806 ft 325 kts 252°
2026-05-05 16:50 49.35353 3.12765 10629 ft 324 kts 252°
2026-05-05 16:50 49.34660 3.09478 10455 ft 323 kts 252°
2026-05-05 16:50 49.33968 3.06203 10282 ft 321 kts 252°
2026-05-05 16:50 49.33298 3.03043 10113 ft 311 kts 252°
2026-05-05 16:51 49.32638 2.99941 9938 ft 301 kts 252°
2026-05-05 16:51 49.31993 2.96912 9772 ft 297 kts 252°
2026-05-05 16:51 49.31353 2.93911 9595 ft 296 kts 252°
2026-05-05 16:51 49.30713 2.90916 9402 ft 295 kts 252°
2026-05-05 16:52 49.30077 2.87935 9219 ft 294 kts 252°
2026-05-05 16:52 49.29441 2.84958 9042 ft 294 kts 252°
2026-05-05 16:52 49.28810 2.81991 8839 ft 293 kts 252°
2026-05-05 16:52 49.28182 2.79031 8665 ft 291 kts 252°
2026-05-05 16:53 49.27971 2.78036 8605 ft 291 kts 252°
2026-05-05 16:53 49.27837 2.77403 8554 ft 290 kts 252°
2026-05-05 16:54 49.27342 2.75223 9035 ft 307 kts 249°
2026-05-05 16:54 49.26734 2.72788 8996 ft 345 kts 249°
2026-05-05 16:54 49.25871 2.69323 8811 ft 352 kts 249°
2026-05-05 16:54 49.25087 2.65788 8486 ft 347 kts 254°
2026-05-05 16:55 49.24591 2.62274 8385 ft 329 kts 261°
2026-05-05 16:55 49.24263 2.58891 8258 ft 314 kts 262°
2026-05-05 16:55 49.23962 2.55648 8123 ft 301 kts 262°
2026-05-05 16:55 49.23674 2.52533 7996 ft 291 kts 262°
2026-05-05 16:56 49.23393 2.49484 7869 ft 289 kts 262°
2026-05-05 16:56 49.23112 2.46461 7736 ft 282 kts 262°
2026-05-05 16:56 49.22840 2.43551 7608 ft 270 kts 262°
2026-05-05 16:56 49.22580 2.40767 7478 ft 259 kts 262°
2026-05-05 16:57 49.22327 2.38079 7363 ft 253 kts 262°
2026-05-05 16:57 49.22078 2.35434 7235 ft 247 kts 262°
2026-05-05 16:57 49.21838 2.32887 7111 ft 237 kts 262°
2026-05-05 16:57 49.21611 2.30479 6977 ft 227 kts 262°
2026-05-05 16:58 49.21389 2.28106 6864 ft 224 kts 262°
2026-05-05 16:58 49.21168 2.25758 6775 ft 223 kts 262°
2026-05-05 16:58 49.20947 2.23436 6649 ft 218 kts 262°
2026-05-05 16:58 49.20698 2.21164 6518 ft 216 kts 253°
2026-05-05 16:59 49.19974 2.19172 6398 ft 216 kts 234°
2026-05-05 16:59 49.19079 2.17337 6275 ft 215 kts 232°
2026-05-05 16:59 49.18167 2.15521 6120 ft 216 kts 232°
2026-05-05 16:59 49.17255 2.13712 5927 ft 214 kts 232°
2026-05-05 17:00 49.16345 2.11908 5803 ft 214 kts 232°
2026-05-05 17:00 49.15436 2.10110 5667 ft 214 kts 232°
2026-05-05 17:00 49.14526 2.08316 5550 ft 213 kts 231°
2026-05-05 17:00 49.13393 2.06907 5448 ft 211 kts 200°
2026-05-05 17:01 49.11978 2.06642 5348 ft 209 kts 176°
2026-05-05 17:01 49.10508 2.06824 5256 ft 209 kts 172°
2026-05-05 17:01 49.09082 2.07057 5155 ft 209 kts 172°
2026-05-05 17:01 49.07642 2.07303 5057 ft 208 kts 172°
2026-05-05 17:02 49.06201 2.07547 5000 ft 208 kts 172°
2026-05-05 17:02 49.04762 2.07799 5012 ft 209 kts 172°
2026-05-05 17:02 49.03383 2.08378 5003 ft 205 kts 145°
2026-05-05 17:02 49.02395 2.09910 5003 ft 203 kts 125°
2026-05-05 17:03 49.01584 2.11669 5003 ft 203 kts 122°
2026-05-05 17:03 49.00795 2.13454 4887 ft 203 kts 122°
2026-05-05 17:03 49.00011 2.15242 4762 ft 203 kts 122°
2026-05-05 17:03 48.99230 2.17025 4639 ft 202 kts 122°
2026-05-05 17:04 48.98449 2.18804 4467 ft 202 kts 122°
2026-05-05 17:04 48.97707 2.20612 4204 ft 200 kts 112°
2026-05-05 17:04 48.97423 2.22611 4044 ft 196 kts 88°
2026-05-05 17:04 48.97525 2.24692 4002 ft 197 kts 84°
2026-05-05 17:05 48.97645 2.26773 3991 ft 198 kts 84°
2026-05-05 17:05 48.97764 2.28861 3814 ft 198 kts 84°
2026-05-05 17:05 48.97880 2.30925 3578 ft 193 kts 84°
2026-05-05 17:05 48.97993 2.32933 3334 ft 188 kts 84°
2026-05-05 17:06 48.98102 2.34884 3093 ft 186 kts 84°
2026-05-05 17:06 48.98211 2.36837 2841 ft 185 kts 84°
2026-05-05 17:06 48.98318 2.38778 2596 ft 184 kts 84°
2026-05-05 17:06 48.98424 2.40687 2342 ft 175 kts 84°
2026-05-05 17:07 48.98524 2.42499 2119 ft 168 kts 84°
2026-05-05 17:07 48.98617 2.44194 1920 ft 151 kts 84°
2026-05-05 17:07 48.98701 2.45733 1713 ft 142 kts 84°
2026-05-05 17:07 48.98782 2.47213 1520 ft 139 kts 84°
2026-05-05 17:08 48.98861 2.48654 1339 ft 138 kts 85°
2026-05-05 17:08 48.98941 2.50108 1161 ft 137 kts 83°
2026-05-05 17:08 48.99020 2.51560 1006 ft 140 kts 83°
2026-05-05 17:08 48.99095 2.53047 860 ft 142 kts 82°
2026-05-05 17:09 48.99193 2.54550 656 ft 144 kts 82°
2026-05-05 17:09 48.99269 2.56066 463 ft 141 kts 81°
2026-05-05 17:09 48.99351 2.57491 357 ft 127 kts 82°
2026-05-05 17:09 48.99405 2.58616 352 ft 82 kts 85°
2026-05-05 17:10 48.99436 2.59243 354 ft 46 kts 85°
2026-05-05 17:10 48.99455 2.59673 352 ft 37 kts 87°
2026-05-05 17:10 48.99529 2.59942 361 ft 21 kts 30°
2026-05-05 17:10 48.99640 2.59977 358 ft 14 kts 355°
2026-05-05 17:11 48.99718 2.59968 357 ft 3 kts 355°
2026-05-05 17:12 48.99742 2.59965 355 ft 7 kts 355°
2026-05-05 17:12 48.99810 2.59955 358 ft 10 kts 354°
2026-05-05 17:12 48.99880 2.59971 357 ft 11 kts 33°
2026-05-05 17:12 48.99930 2.60049 358 ft 10 kts 39°
2026-05-05 17:13 48.99991 2.60069 354 ft 8 kts 352°
2026-05-05 17:13 49.00037 2.60011 354 ft 10 kts 317°
2026-05-05 17:13 49.00100 2.59960 357 ft 11 kts 299°
2026-05-05 17:13 49.00094 2.59823 354 ft 14 kts 265°
2026-05-05 17:14 49.00085 2.59660 360 ft 17 kts 264°
2026-05-05 17:14 49.00074 2.59469 360 ft 19 kts 265°
2026-05-05 17:14 49.00063 2.59251 354 ft 22 kts 265°
2026-05-05 17:14 49.00049 2.59009 360 ft 24 kts 265°
2026-05-05 17:15 49.00036 2.58743 354 ft 26 kts 264°
2026-05-05 17:15 49.00021 2.58468 354 ft 26 kts 266°
2026-05-05 17:15 49.00006 2.58192 354 ft 26 kts 265°
2026-05-05 17:15 48.99991 2.57910 360 ft 27 kts 265°
2026-05-05 17:16 48.99976 2.57616 358 ft 28 kts 265°
2026-05-05 17:16 48.99961 2.57313 354 ft 29 kts 264°
2026-05-05 17:16 48.99945 2.57005 361 ft 30 kts 266°
2026-05-05 17:16 48.99926 2.56692 360 ft 28 kts 265°
2026-05-05 17:17 48.99910 2.56385 354 ft 30 kts 265°
2026-05-05 17:17 48.99893 2.56066 354 ft 30 kts 264°
2026-05-05 17:17 48.99916 2.55794 358 ft 26 kts 288°
2026-05-05 17:17 49.00048 2.55646 354 ft 26 kts 343°
2026-05-05 17:18 49.00223 2.55570 357 ft 26 kts 344°
2026-05-05 17:18 49.00400 2.55493 358 ft 27 kts 344°
2026-05-05 17:18 49.00532 2.55511 358 ft 19 kts 43°
2026-05-05 17:18 49.00561 2.55710 355 ft 20 kts 85°
2026-05-05 17:19 49.00573 2.55932 354 ft 22 kts 84°
2026-05-05 17:19 49.00613 2.56161 354 ft 23 kts 84°
2026-05-05 17:19 49.00625 2.56400 354 ft 23 kts 85°
2026-05-05 17:19 49.00636 2.56619 354 ft 12 kts 86°
2026-05-05 17:20 49.00640 2.56708 356 ft 8 kts 87°
2026-05-05 17:20 49.00630 2.56729 361 ft 1 kts 155°
2026-05-05 17:20 49.00615 2.56732 354 ft 2 kts 174°
2026-05-05 17:20 49.00608 2.56733 354 ft 1 kts 174°
2026-05-05 17:21 49.00599 2.56733 355 ft 2 kts 180°
2026-05-05 17:21 49.00578 2.56735 354 ft 3 kts 176°
2026-05-05 17:21 49.00568 2.56736 358 ft 0 kts 175°
2026-05-05 17:22 49.00562 2.56737 356 ft 0 kts 175°